Clarksville, TN

10:42 PM CST on December 10, 2017 (GMT -0600)
Outlaw

Weather History for KCKV - February, 2012

Change the Weather History Date:

Monday, February 13, 2012

  Actual Average Record
Temperature  
Mean Temperature 29 °F 39 °F  
Max Temperature 40 °F 49 °F 82 °F (1962)
Min Temperature 18 °F 29 °F 2 °F (1986)
Degree Days  
Heating Degree Days 36    
Month to date heating degree days 318  
Since 1 July heating degree days 2424  
Cooling Degree Days 0    
Month to date cooling degree days 0  
Year to date cooling degree days  
Moisture  
Dew Point 22 °F    
Average Humidity 68    
Maximum Humidity 96    
Minimum Humidity 40    
Precipitation  
Precipitation 0.06 in 0.14 in 1.73 in (1989)
Month to date precipitation 0.67 2.10  
Year to date precipitation 5.41  
Sea Level Pressure  
Sea Level Pressure 30.17 in    
Wind  
Wind Speed 5 mph (SSE)    
Max Wind Speed 18 mph    
Max Gust Speed 23 mph    
Visibility 9 miles    
Events Rain , Snow    
T = Trace of Precipitation, MM = Missing Value Source: NWS Daily Summary

Daily Weather History Graph

Daily Weather History Graph

Search for Another Location

Airport or City:

Trip Planner

Search our weather history database for the weather conditions in past years. The results will help you decide how hot, cold, wet, or windy it might be!

Date:

Astronomy

Feb. 13, 2012 Rise Set
Actual Time 6:40 AM CST 5:27 PM CST
Civil Twilight 6:13 AM CST 5:54 PM CST
Nautical Twilight 5:43 AM CST 6:24 PM CST
Astronomical Twilight 5:13 AM CST 6:54 PM CST
Moon No Moon Rise 9:51 AM CST (2/13)
Length of Visible Light 11h 40m
Length of Day
10h 47m
Waning Gibbous, 61% of the Moon is Illuminated
Feb 13
Waning Gibbous
Feb 14
Last Quarter
Feb 21
New
Feb 29
First Quarter
Mar 8
Full

Hourly Weather History & Observations

Time (CST) Temp. Windchill Dew Point Humidity Pressure Visibility Wind Dir Wind Speed Gust Speed Precip Events Conditions
12:52 AM 21.0 °F - 15.1 °F 78% 30.35 in 10.0 mi Calm Calm - N/A   Clear
1:52 AM 19.9 °F - 15.1 °F 81% 30.33 in 10.0 mi Calm Calm - N/A   Clear
2:52 AM 19.9 °F - 17.1 °F 89% 30.32 in 10.0 mi Calm Calm - N/A   Clear
3:52 AM 19.0 °F 13.9 °F 16.0 °F 88% 30.31 in 10.0 mi ESE 3.5 mph - N/A   Clear
4:52 AM 21.0 °F - 18.0 °F 88% 30.31 in 10.0 mi Calm Calm - N/A   Mostly Cloudy
5:52 AM 21.0 °F - 18.0 °F 88% 30.32 in 10.0 mi Calm Calm - N/A   Partly Cloudy
6:52 AM 21.9 °F - 19.0 °F 89% 30.31 in 10.0 mi Calm Calm - N/A   Clear
7:52 AM 25.0 °F 19.3 °F 19.0 °F 78% 30.30 in 10.0 mi SE 4.6 mph - N/A   Mostly Cloudy
8:52 AM 28.0 °F 24.2 °F 19.9 °F 72% 30.29 in 10.0 mi South 3.5 mph - N/A   Overcast
9:52 AM 30.0 °F 24.1 °F 17.1 °F 59% 30.27 in 10.0 mi South 5.8 mph - N/A   Overcast
10:52 AM 33.1 °F 27.7 °F 17.1 °F 52% 30.25 in 10.0 mi SSE 5.8 mph - N/A   Overcast
11:52 AM 34.0 °F 29.8 °F 17.1 °F 50% 30.22 in 10.0 mi South 4.6 mph - N/A   Overcast
12:52 PM 36.0 °F 33.3 °F 18.0 °F 48% 30.17 in 10.0 mi SE 3.5 mph - N/A   Overcast
1:52 PM 37.9 °F - 17.1 °F 43% 30.15 in 10.0 mi Calm Calm - N/A   Overcast
2:52 PM 39.0 °F 33.4 °F 17.1 °F 41% 30.10 in 10.0 mi SE 8.1 mph - N/A   Overcast
3:52 PM 37.9 °F 32.1 °F 18.0 °F 45% 30.08 in 10.0 mi SSE 8.1 mph - N/A   Overcast
4:52 PM 37.9 °F 32.7 °F 21.9 °F 53% 30.10 in 10.0 mi South 6.9 mph - N/A   Overcast
5:52 PM 36.0 °F 30.3 °F 24.1 °F 62% 30.09 in 10.0 mi South 6.9 mph - 0.00 in   Overcast
6:52 PM 35.1 °F 25.2 °F 25.0 °F 67% 30.06 in 6.0 mi South 16.1 mph - 0.00 in Snow Light Snow
7:52 PM 33.1 °F 26.9 °F 28.0 °F 82% 30.04 in 7.0 mi SSE 6.9 mph - 0.00 in Snow Light Snow
8:52 PM 33.1 °F 25.5 °F 30.0 °F 89% 30.02 in 10.0 mi SSE 9.2 mph - 0.01 in   Overcast
9:52 PM 33.1 °F 24.9 °F 32.0 °F 96% 30.01 in 7.0 mi SSE 10.4 mph 18.4 mph 0.03 in Rain Light Rain
10:52 PM 34.0 °F 28.8 °F 32.0 °F 92% 29.99 in 8.0 mi South 5.8 mph - 0.01 in   Overcast
11:38 PM 33.8 °F 29.6 °F 33.8 °F 100% 29.96 in 8.0 mi SSE 4.6 mph - 0.01 in   Overcast
11:52 PM 35.1 °F 31.0 °F 33.1 °F 92% 29.97 in 9.0 mi SSE 4.6 mph - 0.01 in   Overcast